Regional Weather Roundup
Issued by NWS Green Bay, WI

Home | Current Version | Previous Version | Text Only | Print | Product List | Glossary On
Versions: 1 2 3 4 5 6 7 8 9 10 11 12 13 14 15 16 17 18 19 20 21 22 23 24 25 26 27 28 29 30 31 32 33 34 35 36 37 38 39 40 41 42 43 44 45 46 47 48 49 50
000
ASUS43 KGRB 242300
RWRGRB

NORTH-CENTRAL AND NORTHEAST WISCONSIN REGIONAL WEATHER ROUNDUP
NATIONAL WEATHER SERVICE GREEN BAY WI
600 PM CDT SUN MAY 24 2015

WIZ005-009-010>012-018-019-250000-
NORTH CENTRAL WISCONSIN

CITY           SKY/WX    TMP DP  RH WIND       PRES   REMARKS
IRONWOOD       CLOUDY    70  46  43 CALM      29.95S
MANITOWISH WTR NOT AVBL
ARBOR VITAE    NOT AVBL
EAGLE RIVER    NOT AVBL
LAND O LAKES   NOT AVBL
RHINELANDER    RAIN      59  56  89 SE8       30.04F FOG
PHILLIPS       NOT AVBL
ANTIGO         NOT AVBL
TOMAHAWK       NOT AVBL
MERRILL        NOT AVBL
$$

WIZ013-073-250000-
NORTHEAST WISCONSIN

CITY           SKY/WX    TMP DP  RH WIND       PRES   REMARKS
IRON MOUNTAIN  CLOUDY    66  53  63 S13       30.02S
MARINETTE      CLOUDY    59  54  82 S5        30.05F
$$

WIZ017-030-035>037-045-250000-
CENTRAL WISCONSIN

CITY           SKY/WX    TMP DP  RH WIND       PRES   REMARKS
MEDFORD        NOT AVBL
WAUSAU         RAIN      58  56  93 E9        30.00F FOG
MOSINEE        RAIN      57  57 100 E7        30.02F
MARSHFIELD     RAIN      58  55  90 E15       29.97F FOG
WISC RAPIDS    RAIN      58  55  90 SE7       29.99F FOG
STEVENS POINT  NOT AVBL
WAUPACA        NOT AVBL
SHAWANO        NOT AVBL
CLINTONVILLE   NOT AVBL
$$

WIZ038-039-048-051-250000-
FOX VALLEY

CITY           SKY/WX    TMP DP  RH WIND       PRES   REMARKS
NWS GREEN BAY  RAIN      59  55  87 SE9       30.05F FOG
APPLETON       LGT RAIN  57  57 100 SE10      30.04F FOG
OSHKOSH        HVY RAIN  57  54  89 SE12      30.00F FOG
FOND DU LAC    HVY RAIN  57  53  86 SE10      30.01F FOG
$$

WIZ022-050-052-250000-
EAST CENTRAL WISCONSIN

CITY           SKY/WX    TMP DP  RH WIND       PRES   REMARKS
STURGEON BAY   CLOUDY    57  52  82 SE9       30.09F
MANITOWOC      NOT AVBL
SHEBOYGAN      LGT RAIN  54  52  93 E8        30.04F FOG
$$

LMZ563-521-522-541>543-250000-
LAKESHORE

STATION/POSITION TIME  TEMP    WIND        PRES    VSBY  WAVE
                       AIR SEA DIR/SP/G                  HT/PER
                 (UTC) (F)     (DEG/KT/KT) (MB)    (MI)  (FT/S)
SHEBOYGAN LKSHOR 2200   48      90/  4/  5 1019.2F
KEWAUNEE LKSHORE 2200   52     170/  2/  3 1017.8F
NORTHPORT PIER   2200   59     150/  6/  9 1018.3F
N MID LAKE BUOY  2150   44 36  210/ 12/ 14 1019.3F         1/ 3
SISTER BAY LKSHO 2218   62     210/ 15/ 18   N/A
CHAMBERS ISLAND  2200   60     180/  5/ 10 1018.6S
MENOMINEE LKSHOR 2200   62     190/  6/ 11 1018.8F
$$



USA.gov is the U.S. government's official web portal to all federal, state and local government web resources and services.